Weather reports worldwide

Advertisment
Pontevedra, Spain (8044): temperature & dewpoint: 27.06.2020 19:00:00 - 03.07.2020 19:00:00 (CEST)Pontevedra, Spain (8044): wind speed: 27.06.2020 19:00:00 - 03.07.2020 19:00:00 (CEST)Pontevedra, Spain (8044): wind direction: 27.06.2020 19:00:00 - 03.07.2020 19:00:00 (CEST)Pontevedra, Spain (8044): reduced air pressure: 27.06.2020 19:00:00 - 03.07.2020 19:00:00 (CEST)Pontevedra, Spain (8044): visibility: 27.06.2020 19:00:00 - 03.07.2020 19:00:00 (CEST)Pontevedra, Spain (8044): precipitation: 27.06.2020 19:00:00 - 03.07.2020 19:00:00 (CEST)
Date & Time tt [°C] td [°C] ff [km/h] ff [kn] dd ppp [hPa] vv [km] rr [mm]
03.07.2020 19:00:00 25,3 11,5 16 9 NW 1021,4 20 0,0
03.07.2020 18:00:00 25,7 11,1 16 9 NW 1021,2 20 0,0
03.07.2020 17:00:00 25,3 11,5 18 10 NW 1021,6 20 -
03.07.2020 16:00:00 24,2 11,5 16 9 WNW 1021,9 20 0,0
03.07.2020 15:00:00 23,3 11,4 21 11 W 1022,3 19 0,0
03.07.2020 14:00:00 22,6 11,9 18 10 WNW 1022,6 20 -
03.07.2020 13:00:00 21,7 10,5 9 5 NNW 1022,9 20 0,0
03.07.2020 12:00:00 20,0 10,4 15 8 NNW 1023,1 20 0,0
03.07.2020 11:00:00 18,6 10,7 9 5 NNE 1023,3 20 -
03.07.2020 10:00:00 15,7 10,7 5 3 WNW 1023,7 20 0,0
03.07.2020 09:00:00 13,1 9,5 5 3 NE 1023,7 20 0,0
03.07.2020 08:00:00 10,5 7,9 4 2 N 1023,9 20 -
03.07.2020 07:00:00 10,6 7,7 2 1 NNE 1023,5 20 0,0
03.07.2020 06:00:00 10,7 7,8 4 2 NNE 1023,6 20 0,0
03.07.2020 05:00:00 11,0 7,9 2 1 W 1023,5 20 -
03.07.2020 04:00:00 12,0 8,5 8 4 NE 1023,6 20 0,0
03.07.2020 03:00:00 12,1 8,6 4 2 NNE 1023,8 20 0,0
03.07.2020 02:00:00 13,2 8,5 4 2 N 1024,0 20 -
03.07.2020 01:00:00 13,7 8,7 8 4 NW 1024,2 20 0,0
03.07.2020 00:00:00 14,4 9,0 4 2 N 1024,0 20 0,0
02.07.2020 23:00:00 15,4 9,1 9 5 NNW 1023,2 20 -
02.07.2020 22:00:00 17,2 9,6 5 3 NE 1022,4 20 0,0
02.07.2020 21:00:00 18,4 9,5 13 7 NNW 1021,9 20 0,0
02.07.2020 20:00:00 20,3 10,1 13 7 NNW 1021,3 20 -
02.07.2020 19:00:00 20,2 10,9 11 6 NNW 1021,2 20 0,0
02.07.2020 18:00:00 20,9 11,0 16 9 WNW 1021,1 20 0,0
02.07.2020 17:00:00 21,2 11,2 15 8 NNW 1021,0 20 -
02.07.2020 16:00:00 20,3 11,0 16 9 NW 1021,3 20 0,0
02.07.2020 15:00:00 20,8 11,1 16 9 NW 1021,2 20 0,0
02.07.2020 14:00:00 21,3 11,3 11 6 NNW 1021,0 20 -
02.07.2020 13:00:00 20,0 11,0 11 6 NNW 1021,1 20 0,0
02.07.2020 12:00:00 17,3 12,0 11 6 NNW 1021,0 20 0,0
02.07.2020 11:00:00 17,3 11,8 5 3 NW 1020,6 20 -
02.07.2020 10:00:00 16,0 11,6 4 2 NW 1020,3 20 0,0
02.07.2020 09:00:00 15,2 12,0 2 1 NW 1019,7 20 0,0
02.07.2020 08:00:00 14,0 10,6 4 2 N 1019,3 20 -
02.07.2020 07:00:00 14,3 10,9 5 3 E 1018,8 20 0,0
02.07.2020 06:00:00 14,8 10,6 5 3 NE 1018,5 20 0,0
02.07.2020 05:00:00 15,1 10,1 4 2 NNE 1018,5 20 -
02.07.2020 04:00:00 15,5 10,5 5 3 NE 1018,4 20 0,0
02.07.2020 03:00:00 15,3 11,5 5 3 NE 1018,6 20 0,0
02.07.2020 02:00:00 15,3 12,2 4 2 NE 1018,9 20 -
02.07.2020 01:00:00 15,5 11,9 5 3 N 1018,9 20 0,0
02.07.2020 00:00:00 16,0 12,0 4 2 N 1018,6 20 0,0
01.07.2020 23:00:00 16,8 12,1 8 4 NNW 1018,1 20 -
01.07.2020 22:00:00 18,3 12,9 4 2 W 1017,4 20 0,0
01.07.2020 21:00:00 20,0 13,5 9 5 SW 1017,1 20 0,0
01.07.2020 20:00:00 21,2 13,9 9 5 SW 1016,9 10 -
01.07.2020 19:00:00 20,8 14,2 13 7 WSW 1016,9 20 0,0
01.07.2020 18:00:00 20,4 13,6 13 7 WSW 1017,0 20 0,0
01.07.2020 17:00:00 21,2 13,4 11 6 WSW 1017,1 10 -
01.07.2020 16:00:00 21,2 13,6 13 7 WSW 1017,2 20 0,0
01.07.2020 15:00:00 21,9 14,3 16 9 SW 1017,3 20 0,0
01.07.2020 14:00:00 20,2 14,1 11 6 WSW 1017,0 10 -
01.07.2020 13:00:00 19,4 14,2 9 5 SW 1017,0 20 0,0
01.07.2020 12:00:00 18,5 14,6 13 7 SW 1016,7 20 0,0
01.07.2020 11:00:00 19,0 15,5 9 5 WSW 1016,1 8 -
01.07.2020 10:00:00 18,3 16,3 5 3 SSW 1015,9 20 0,0
01.07.2020 09:00:00 17,4 16,3 5 3 W 1015,5 4,2 0,0
01.07.2020 08:00:00 16,9 15,8 4 2 NE 1015,0 4,0 -
01.07.2020 07:00:00 17,0 15,7 2 1 S 1014,6 15 0,0
01.07.2020 06:00:00 16,6 15,3 2 1 N 1014,4 13 0,0
01.07.2020 05:00:00 16,7 15,2 0 0 N 1014,3 19 -
01.07.2020 04:00:00 17,0 15,5 4 2 W 1014,3 1,3 0,0
01.07.2020 03:00:00 17,5 15,3 4 2 WSW 1014,1 5 0,0
01.07.2020 02:00:00 18,1 15,0 2 1 S 1014,2 20 -
01.07.2020 01:00:00 19,4 15,3 5 3 NW 1014,1 20 0,0
01.07.2020 00:00:00 20,4 15,4 4 2 N 1013,8 20 0,0
30.06.2020 23:00:00 21,3 15,6 9 5 NW 1013,4 20 -
30.06.2020 22:00:00 23,5 16,0 8 4 NNW 1012,8 20 0,0
30.06.2020 21:00:00 25,5 16,9 16 9 NW 1012,0 20 0,0
30.06.2020 20:00:00 27,7 17,5 16 9 NW 1011,0 12 -
30.06.2020 19:00:00 27,2 19,0 9 5 SW 1010,8 20 0,0
30.06.2020 18:00:00 27,5 18,8 11 6 SW 1010,9 20 0,0
30.06.2020 17:00:00 28,6 18,7 9 5 WSW 1010,9 20 -
30.06.2020 16:00:00 29,3 18,7 16 9 W 1011,0 20 0,0
30.06.2020 15:00:00 28,9 19,2 15 8 NW 1011,4 20 0,0
30.06.2020 14:00:00 27,5 18,8 16 9 WNW 1011,6 30 -
30.06.2020 13:00:00 27,0 18,6 15 8 NW 1011,8 20 0,0
30.06.2020 12:00:00 26,3 18,2 11 6 NW 1012,0 20 0,0
30.06.2020 11:00:00 23,9 17,9 9 5 WNW 1012,5 30 -
30.06.2020 10:00:00 - - - - - - - -
30.06.2020 09:00:00 17,6 14,7 4 2 SW 1013,3 20 0,0
30.06.2020 08:00:00 16,2 13,9 4 2 S 1013,2 30 -
30.06.2020 07:00:00 15,7 13,4 2 1 W 1013,5 20 0,0
30.06.2020 06:00:00 15,8 13,5 4 2 ESE 1013,5 20 0,0
30.06.2020 05:00:00 16,0 12,9 2 1 SSE 1014,0 20 -
30.06.2020 04:00:00 16,6 12,9 2 1 SE 1014,4 20 0,0
30.06.2020 03:00:00 17,4 13,5 5 3 N 1015,2 20 0,0
30.06.2020 02:00:00 18,5 14,2 8 4 NNW 1015,7 20 -
30.06.2020 01:00:00 19,4 14,4 5 3 NNE 1016,4 20 0,0
30.06.2020 00:00:00 19,8 13,9 8 4 NE 1016,5 20 0,0
29.06.2020 23:00:00 20,4 12,9 8 4 NNE 1016,5 20 -
29.06.2020 22:00:00 21,9 12,4 13 7 NNW 1016,2 20 0,0
29.06.2020 21:00:00 24,6 13,8 11 6 NNW 1016,1 20 0,0
29.06.2020 20:00:00 25,6 13,1 18 10 NW 1015,8 15 -
29.06.2020 19:00:00 26,6 13,0 18 10 NW 1015,8 20 0,0
29.06.2020 18:00:00 26,8 13,9 16 9 NW 1016,3 20 0,0
29.06.2020 17:00:00 26,4 14,2 15 8 NW 1017,0 20 -
29.06.2020 16:00:00 25,9 13,7 11 6 NW 1017,5 20 0,0
29.06.2020 15:00:00 24,4 14,8 18 10 NW 1018,1 20 0,0
29.06.2020 14:00:00 23,7 15,2 15 8 NW 1018,7 20 -
29.06.2020 13:00:00 22,9 16,7 15 8 NW 1019,2 20 -
29.06.2020 12:00:00 21,8 15,2 8 4 NW 1019,3 17 0,0
29.06.2020 11:00:00 20,0 15,0 11 6 NW 1019,5 20 -
29.06.2020 10:00:00 18,8 15,1 9 5 NNW 1019,5 20 0,0
29.06.2020 09:00:00 16,2 15,4 4 2 NW 1019,6 19 0,0
29.06.2020 08:00:00 14,6 13,6 4 2 NW 1019,8 15 -
29.06.2020 07:00:00 14,7 13,6 2 1 N 1020,0 20 0,0
29.06.2020 06:00:00 15,1 13,8 2 1 NNE 1020,0 20 0,0
29.06.2020 05:00:00 15,9 14,1 5 3 NE 1020,0 20 -
29.06.2020 04:00:00 16,1 14,5 5 3 NNW 1020,1 20 0,0
29.06.2020 03:00:00 16,7 15,9 4 2 NNW 1020,2 20 0,0
29.06.2020 02:00:00 17,2 16,4 5 3 NW 1020,4 16 -
29.06.2020 01:00:00 17,7 17,1 5 3 WSW 1020,7 7 0,0
29.06.2020 00:00:00 18,1 17,3 4 2 SSW 1020,9 7 0,0
28.06.2020 23:00:00 18,2 17,2 4 2 SW 1020,6 14 -
28.06.2020 22:00:00 18,8 17,5 5 3 SW 1020,3 3,0 0,0
28.06.2020 21:00:00 19,1 17,6 5 3 SW 1020,5 20 0,0
28.06.2020 20:00:00 19,9 18,0 8 4 WSW 1020,4 8 -
28.06.2020 19:00:00 20,2 17,8 8 4 SW 1020,6 20 0,0
28.06.2020 18:00:00 20,8 18,6 9 5 WSW 1020,6 19 0,0
28.06.2020 17:00:00 20,7 18,8 9 5 SW 1020,6 8 -
28.06.2020 16:00:00 19,2 18,5 8 4 SSW 1020,9 - 0,0
28.06.2020 15:00:00 18,8 17,8 8 4 WSW 1021,2 1,9 0,0
28.06.2020 14:00:00 19,0 18,2 5 3 SW 1021,2 2,0 -
28.06.2020 13:00:00 18,6 17,8 5 3 SW 1021,1 1,8 0,2
28.06.2020 12:00:00 17,8 17,0 4 2 W 1021,1 4,2 0,0
28.06.2020 11:00:00 17,2 16,4 4 2 WNW 1021,0 4,0 -
28.06.2020 10:00:00 17,0 16,2 2 1 ESE 1021,0 2,7 0,0
28.06.2020 09:00:00 16,6 16,1 4 2 W 1020,5 17 0,0
28.06.2020 08:00:00 16,0 15,5 2 1 NNE 1020,2 6 -
28.06.2020 07:00:00 16,0 15,5 2 1 NE 1019,7 16 0,0
28.06.2020 06:00:00 15,9 15,4 2 1 W 1020,0 14 0,0
28.06.2020 05:00:00 15,9 15,4 0 0 N 1020,2 17 -
28.06.2020 04:00:00 15,7 15,1 4 2 SSE 1020,2 14 0,0
28.06.2020 03:00:00 15,7 14,9 4 2 SE 1020,2 12 0,0
28.06.2020 02:00:00 16,0 15,4 2 1 SSE 1020,4 20 -
28.06.2020 01:00:00 15,7 14,7 4 2 ESE 1020,4 20 0,0
28.06.2020 00:00:00 16,5 15,4 4 2 SSE 1020,4 20 0,0
27.06.2020 23:00:00 16,8 15,7 5 3 SE 1020,1 20 -
27.06.2020 22:00:00 17,2 16,1 8 4 SSW 1019,5 18 0,0
27.06.2020 21:00:00 18,0 16,5 8 4 SW 1019,3 18 0,0
27.06.2020 20:00:00 18,5 16,8 13 7 SW 1018,9 10 -
27.06.2020 19:00:00 19,2 18,0 11 6 SW 1018,7 20 0,0

tt = temperature
td = dewpoint
ff = wind speed
dd = wind direction
ppp = reduced air pressure
vv = visibility
rr = precipitation

Next stations